Location: Unspecified
(35.6895°N, 139.6917°E)
Time: 02:41:10
(UTC+00:00)

ASTRO H - Pass Details

Date: 07 October 2021
Orbit: 561 x 579 km, 31.0° (Epoch: 22 October)

Event Time Altitude Azimuth Distance (km) Brightness Sun altitude
Rises 09:18:16 0° 246° (WSW) 2,740 ? -13.3°
Reaches altitude 10° 09:20:39 10° 238° (WSW) 1,842 ? -13.8°
Maximum altitude 09:24:36 37° 170° (S) 871 ? -14.6°
Enters shadow 09:26:35 24° 119° (ESE) 1,191 ? -15.0°
